Stations météo

réclame
Mon MeteoGroup
Baltasound, Grande-Bretagne (3002): Température de l'air & dewpoint: 12.10.2018 17:00:00 - 18.10.2018 17:00:00 (BST)Baltasound, Grande-Bretagne (3002): Température de l'air -20cm: 12.10.2018 17:00:00 - 18.10.2018 17:00:00 (BST)Baltasound, Grande-Bretagne (3002): Vitesse du vent & gusts: 12.10.2018 17:00:00 - 18.10.2018 17:00:00 (BST)Baltasound, Grande-Bretagne (3002): Direction du vent: 12.10.2018 17:00:00 - 18.10.2018 17:00:00 (BST)Baltasound, Grande-Bretagne (3002): reduced air pressure: 12.10.2018 17:00:00 - 18.10.2018 17:00:00 (BST)Baltasound, Grande-Bretagne (3002): visibility: 12.10.2018 17:00:00 - 18.10.2018 17:00:00 (BST)Baltasound, Grande-Bretagne (3002): Quantités de précipitations: 12.10.2018 17:00:00 - 18.10.2018 17:00:00 (BST)
Date & Time tt [°C] td [°C] tt -20cm [°C] ff [km/h] ff [knt] fx [km/h] fx [knt] dd ppp [hPa] vv [km] rr [mm]
18.10.2018 17:00:00 9,7 6,8 - 15 8 - - SW 1022,6 16 0,0
18.10.2018 16:00:00 10,2 7,0 - 21 11 - - WSW 1022,6 17 0,0
18.10.2018 15:00:00 9,4 7,2 - 21 11 - - SW 1022,8 21 0,0
18.10.2018 14:00:00 10,0 6,0 - 21 11 - - WSW 1022,9 26 0,0
18.10.2018 13:00:00 9,8 7,5 - 15 8 - - WSW 1022,9 12 0,0
18.10.2018 12:00:00 10,1 6,4 - 28 15 - - W 1022,6 19 0,0
18.10.2018 11:00:00 10,4 6,9 - 24 13 - - W 1022,5 15 0,0
18.10.2018 10:00:00 9,6 5,7 9,0 29 16 46 25 W 1022,2 15 0,0
18.10.2018 09:00:00 8,9 4,6 - 34 18 46 25 W 1021,4 17 0,0
18.10.2018 08:00:00 8,7 5,3 - 31 17 - - W 1021,0 15 0,2
18.10.2018 07:00:00 7,4 5,6 - 34 18 50 27 W 1020,3 15 0,0
18.10.2018 06:00:00 8,3 5,2 - 29 16 52 28 W 1019,7 14 0,2
18.10.2018 05:00:00 8,8 5,0 - 31 17 50 27 W 1019,2 16 0,0
18.10.2018 04:00:00 7,7 5,0 - 31 17 52 28 W 1018,9 18 0,0
18.10.2018 03:00:00 7,7 5,2 - 37 20 63 34 W 1018,8 6 0,2
18.10.2018 02:00:00 8,2 5,2 - 35 19 57 31 W 1018,0 17 0,0
18.10.2018 01:00:00 7,6 4,9 - 37 20 63 34 W 1017,6 24 0,2
18.10.2018 00:00:00 8,5 4,8 - 39 21 52 28 W 1017,2 14 0,0
17.10.2018 23:00:00 8,4 5,3 - 37 20 65 35 W 1016,7 7 0,6
17.10.2018 22:00:00 8,7 5,2 - 29 16 50 27 WSW 1016,2 13 0,0
17.10.2018 21:00:00 8,8 5,0 - 31 17 50 27 WSW 1015,6 14 0,0
17.10.2018 20:00:00 8,6 5,2 - 28 15 50 27 W 1014,8 13 0,0
17.10.2018 19:00:00 9,1 5,5 - 37 20 48 26 W 1013,9 17 0,0
17.10.2018 18:00:00 8,1 4,9 - 39 21 61 33 W 1012,9 21 0,2
17.10.2018 17:00:00 9,4 4,3 - 39 21 54 29 WSW 1012,2 16 0,0
17.10.2018 16:00:00 10,0 5,4 - 39 21 59 32 W 1011,4 17 0,0
17.10.2018 15:00:00 10,4 5,0 - 42 23 55 30 WSW 1010,7 19 0,0
17.10.2018 14:00:00 10,6 5,1 - 41 22 55 30 WSW 1010,1 25 0,2
17.10.2018 13:00:00 10,5 6,3 - 37 20 54 29 WSW 1009,7 8 0,0
17.10.2018 12:00:00 9,5 6,9 - 37 20 59 32 SW 1008,8 35 0,2
17.10.2018 11:00:00 10,4 5,8 - 39 21 50 27 WSW 1008,2 16 0,2
17.10.2018 10:00:00 10,0 5,8 9,2 29 16 48 26 WSW 1007,3 20 0,0
17.10.2018 09:00:00 8,7 5,4 - 28 15 - - SW 1006,5 18 0,0
17.10.2018 08:00:00 8,5 5,6 - 26 14 - - SW 1005,6 16 0,0
17.10.2018 07:00:00 8,4 5,9 - 28 15 - - SW 1004,7 16 0,0
17.10.2018 06:00:00 8,0 6,5 - 24 13 - - SW 1004,2 18 0,0
17.10.2018 05:00:00 9,1 7,7 - 24 13 - - SW 1004,0 16 0,0
17.10.2018 04:00:00 9,0 6,9 - 22 12 - - SW 1003,7 25 0,0
17.10.2018 03:00:00 8,9 7,5 - 28 15 52 28 SW 1003,1 28 0,4
17.10.2018 02:00:00 9,7 7,8 - 26 14 - - SSW 1003,0 12 0,0
17.10.2018 01:00:00 9,0 7,1 - 22 12 - - SW 1002,8 12 0,0
17.10.2018 00:00:00 10,4 7,6 - 31 17 48 26 SSW 1002,4 21 0,0
16.10.2018 23:00:00 11,1 9,3 - 35 19 52 28 SW 1002,0 25 0,0
16.10.2018 22:00:00 11,5 9,4 - 39 21 52 28 SSW 1001,8 22 0,0
16.10.2018 21:00:00 11,7 9,4 - 34 18 50 27 SSW 1001,4 17 0,0
16.10.2018 20:00:00 11,5 8,8 - 35 19 46 25 S 1001,4 16 0,0
16.10.2018 19:00:00 10,9 9,1 - 35 19 46 25 S 1001,1 13 0,0
16.10.2018 18:00:00 11,1 9,4 - 39 21 59 32 S 1001,1 12 0,0
16.10.2018 17:00:00 11,2 9,8 - 42 23 59 32 S 1001,2 12 0,0
16.10.2018 16:00:00 11,4 10,1 - 42 23 65 35 S 1001,6 13 0,0
16.10.2018 15:00:00 11,1 10,2 - 50 27 70 38 S 1002,3 5 0,0
16.10.2018 14:00:00 10,6 9,9 - 52 28 74 40 S 1002,9 8 0,0
16.10.2018 13:00:00 10,6 8,9 - 46 25 72 39 S 1004,0 13 0,0
16.10.2018 12:00:00 10,8 8,3 - 50 27 68 37 S 1004,9 14 0,0
16.10.2018 11:00:00 10,6 7,9 - 48 26 68 37 S 1006,0 18 0,0
16.10.2018 10:00:00 10,5 8,0 9,2 48 26 63 34 S 1006,9 15 0,0
16.10.2018 09:00:00 10,2 7,4 - 44 24 61 33 SSE 1007,1 20 0,0
16.10.2018 08:00:00 10,2 8,1 - 41 22 54 29 S 1007,7 16 0,0
16.10.2018 07:00:00 10,3 8,3 - 35 19 50 27 S 1008,8 18 0,0
16.10.2018 06:00:00 10,3 8,8 - 31 17 - - S 1009,8 18 0,0
16.10.2018 05:00:00 10,0 7,5 - 24 13 - - S 1010,4 25 0,0
16.10.2018 04:00:00 10,1 8,7 - 21 11 - - S 1011,3 27 0,0
16.10.2018 03:00:00 10,0 9,1 - 21 11 - - S 1012,0 25 0,0
16.10.2018 02:00:00 8,8 7,8 - 16 9 - - S 1012,3 23 0,0
16.10.2018 01:00:00 8,2 7,2 - 21 11 - - S 1012,6 24 0,0
16.10.2018 00:00:00 8,0 6,7 - 21 11 - - S 1012,9 35 0,0
15.10.2018 23:00:00 8,8 7,0 - 21 11 - - SSW 1013,1 40 0,0
15.10.2018 22:00:00 8,6 7,3 - 18 10 - - SSW 1013,0 28 0,0
15.10.2018 21:00:00 8,0 7,1 - 18 10 - - SSW 1013,0 26 0,0
15.10.2018 20:00:00 8,5 7,6 - 18 10 - - SSW 1012,9 25 0,2
15.10.2018 19:00:00 9,0 8,3 - 16 9 - - SW 1012,5 30 0,8
15.10.2018 18:00:00 9,8 8,1 - 18 10 - - SSW 1012,1 23 0,0
15.10.2018 17:00:00 9,8 7,4 - 18 10 - - SW 1011,8 28 0,0
15.10.2018 16:00:00 10,6 8,0 - 24 13 - - SW 1011,5 30 0,2
15.10.2018 15:00:00 10,3 8,4 - 28 15 - - WSW 1011,2 3,6 0,6
15.10.2018 14:00:00 11,4 8,0 - 34 18 46 25 SW 1011,1 27 0,0
15.10.2018 13:00:00 12,1 8,3 - 31 17 - - SW 1011,0 30 0,0
15.10.2018 12:00:00 12,0 8,2 - 26 14 - - SW 1010,9 23 0,0
15.10.2018 11:00:00 10,4 8,0 - 21 11 - - SSW 1010,8 20 0,0
15.10.2018 10:00:00 10,1 7,2 9,5 26 14 - - SSW 1010,6 35 0,0
15.10.2018 09:00:00 9,9 7,2 - 28 15 - - SSW 1010,4 35 0,0
15.10.2018 08:00:00 8,9 6,9 - 24 13 - - S 1010,0 40 0,0
15.10.2018 07:00:00 8,8 6,5 - 22 12 - - SSW 1009,7 40 0,0
15.10.2018 06:00:00 8,9 7,0 - 22 12 - - S 1009,6 27 0,0
15.10.2018 05:00:00 8,6 6,8 - 21 11 - - SSW 1009,7 40 0,0
15.10.2018 04:00:00 8,8 6,9 - 24 13 - - S 1009,9 35 0,0
15.10.2018 03:00:00 8,3 6,8 - 21 11 - - S 1009,8 30 0,0
15.10.2018 02:00:00 7,5 5,8 - 18 10 - - S 1010,1 35 0,0
15.10.2018 01:00:00 8,0 5,9 - 22 12 - - SSW 1009,8 45 0,0
15.10.2018 00:00:00 7,6 5,9 - 18 10 - - S 1009,6 40 0,0
14.10.2018 23:00:00 6,4 5,4 - 18 10 - - S 1009,7 35 0,0
14.10.2018 22:00:00 6,9 5,6 - 18 10 - - SSW 1009,2 30 0,0
14.10.2018 21:00:00 6,7 5,6 - 16 9 - - S 1008,7 40 0,0
14.10.2018 20:00:00 7,0 5,9 - 18 10 - - SSW 1008,2 30 0,0
14.10.2018 19:00:00 5,7 4,3 - 15 8 - - SSW 1007,7 35 0,0
14.10.2018 18:00:00 7,7 5,5 - 11 6 - - SW 1007,2 45 0,0
14.10.2018 17:00:00 9,9 7,1 - 13 7 - - SW 1006,7 40 0,0
14.10.2018 16:00:00 9,9 6,4 - 13 7 - - SW 1006,2 40 0,0
14.10.2018 15:00:00 10,1 7,5 - 15 8 - - SW 1005,9 25 0,0
14.10.2018 14:00:00 9,7 6,6 - 13 7 - - SW 1005,8 30 0,0
14.10.2018 13:00:00 9,9 6,5 - 18 10 - - WSW 1005,3 30 0,0
14.10.2018 12:00:00 9,7 7,5 - 16 9 - - SW 1004,8 24 0,2
14.10.2018 11:00:00 8,9 7,6 - 13 7 - - WSW 1003,3 30 0,0
14.10.2018 10:00:00 7,7 6,3 9,9 24 13 - - W 1003,0 12 0,0
14.10.2018 09:00:00 7,9 6,1 - 16 9 - - NW 1002,0 30 0,0
14.10.2018 08:00:00 7,3 6,5 - 21 11 - - NW 1000,2 6 0,2
14.10.2018 07:00:00 7,5 6,6 - 26 14 - - NNW 998,4 7 0,0
14.10.2018 06:00:00 7,4 6,9 - 31 17 48 26 NNW 996,6 4,7 0,6
14.10.2018 05:00:00 7,2 6,7 - 37 20 57 31 NNW 996,0 3,3 1,0
14.10.2018 04:00:00 7,5 7,0 - 39 21 57 31 N 994,6 4,2 0,6
14.10.2018 03:00:00 8,0 7,5 - 37 20 55 30 N 994,1 5 0,6
14.10.2018 02:00:00 8,7 8,4 - 29 16 - - N 994,3 6 1,6
14.10.2018 01:00:00 9,0 8,8 - 29 16 - - NNE 995,0 3,4 1,4
14.10.2018 00:00:00 9,0 8,8 - 24 13 - - NNE 995,9 6 1,4
13.10.2018 23:00:00 9,0 8,8 - 16 9 - - NNE 997,8 6 1,8
13.10.2018 22:00:00 9,2 8,6 - 11 6 - - ENE 998,9 3,6 0,4
13.10.2018 21:00:00 9,9 9,7 - 13 7 - - ESE 999,1 14 1,4
13.10.2018 20:00:00 9,8 9,4 - 9 5 - - SSE 999,9 4,0 1,6
13.10.2018 19:00:00 9,5 8,9 - 8 4 - - SE 1000,0 7 1,0
13.10.2018 18:00:00 10,2 9,6 - 13 7 - - SSE 1000,6 8 0,2
13.10.2018 17:00:00 11,0 10,3 - 11 6 - - SSE 1000,8 7 0,0
13.10.2018 16:00:00 11,4 9,5 - 13 7 - - S 1001,3 8 0,0
13.10.2018 15:00:00 11,9 9,0 - 13 7 - - S 1001,7 11 0,0
13.10.2018 14:00:00 11,9 9,0 - 15 8 - - SSW 1002,5 10 0,0
13.10.2018 13:00:00 12,0 8,7 - 18 10 - - SSW 1002,6 11 0,0
13.10.2018 12:00:00 12,3 7,7 - 28 15 - - SW 1002,1 14 0,0
13.10.2018 11:00:00 11,8 9,0 - 24 13 48 26 SW 1001,6 9 0,0
13.10.2018 10:00:00 11,6 7,6 10,0 37 20 59 32 SW 1000,8 11 0,0
13.10.2018 09:00:00 11,2 8,3 - 34 18 54 29 SSW 999,7 10 0,0
13.10.2018 08:00:00 11,3 8,1 - 37 20 59 32 SSW 998,2 11 0,0
13.10.2018 07:00:00 11,5 8,3 - 39 21 67 36 SW 996,4 11 0,0
13.10.2018 06:00:00 11,7 8,0 - 46 25 70 38 SSW 995,3 13 0,0
13.10.2018 05:00:00 11,7 8,4 - 41 22 68 37 SSW 993,9 14 0,0
13.10.2018 04:00:00 11,8 8,6 - 44 24 67 36 SSW 992,4 11 0,0
13.10.2018 03:00:00 12,2 8,8 - 52 28 68 37 S 991,0 12 0,0
13.10.2018 02:00:00 12,0 9,6 - 48 26 70 38 S 989,8 10 0,0
13.10.2018 01:00:00 12,1 10,4 - 48 26 67 36 S 989,3 10 0,0
13.10.2018 00:00:00 11,9 10,5 - 46 25 63 34 S 988,8 10 0,0
12.10.2018 23:00:00 12,1 10,9 - 42 23 61 33 S 987,8 9 0,0
12.10.2018 22:00:00 12,6 11,8 - 44 24 72 39 S 987,3 7 0,0
12.10.2018 21:00:00 11,8 11,7 - 34 18 48 26 SSE 985,9 9 3,0
12.10.2018 20:00:00 11,5 11,3 - 37 20 59 32 SE 988,6 3,1 3,0
12.10.2018 19:00:00 11,7 11,4 - 41 22 61 33 SE 990,6 3,8 1,6
12.10.2018 18:00:00 12,2 11,4 - 44 24 61 33 SSE 992,6 3,2 0,6
12.10.2018 17:00:00 12,6 11,2 - 41 22 63 34 S 993,1 5 0,0

tt = Température de l'air
td = dewpoint
tt -20cm = Température de l'air -20cm
ff = Vitesse du vent
fx = gusts
dd = Direction du vent
ppp = reduced air pressure
vv = visibility
rr = Quantités de précipitations

stations d'obs. à proximité